Location: Laas
(43.4693°N, 0.3073°E)
Time: 14:20:15
(UTC+00:00)

NOSS 3-3 (C) - Pass Details

Date: 25 October 2020
Orbit: 825 x 1387 km, 63.4° (Epoch: 22 November)

Event Time Altitude Azimuth Distance (km) Brightness Sun altitude
Rises 19:10:12 0° 209° (SSW) 3,386 7.1 -24.3°
Reaches altitude 10° 19:12:34 10° 208° (SSW) 2,489 6.4 -24.8°
Maximum altitude 19:18:17 76° 123° (ESE) 950 3.7 -25.8°
Enters shadow 19:19:23 60° 59° (ENE) 1,064 3.9 -26.0°
